GW0007 Weather Reports


Display with metric or nautical units.
time (UTC)temp
F
wind
direction
speed
MPH
gust
MPH
rain 1hr
in
rain 24hr
in
rain mn
in
humidity
%
barometer
mb
20260505173043 47 326 3.0 9.0 0.00 0.00 0.00 45 1016.4
20260505171543 44 309 4.0 9.0 0.00 0.00 0.00 48 1016.7
20260505170043 45 219 4.0 8.0 0.00 0.00 0.00 47 1017.0
20260505164545 44 354 2.0 7.0 0.00 0.00 0.00 48 1017.0
20260505163037 44 264 4.0 10.0 0.00 0.00 0.00 49 1017.1
20260505161538 43 272 2.0 4.0 0.00 0.00 0.00 48 1017.1
20260505153043 41 21 4.0 7.0 0.00 0.00 0.00 51 1017.4
20260505151540 42 87 2.0 5.0 0.00 0.00 0.00 50 1017.5
20260505124540 31 93 0.0 1.0 0.00 0.00 0.00 75 1017.1
20260505123054 31 85 1.0 2.0 0.00 0.00 0.00 74 1017.0
20260505121543 31 91 1.0 3.0 0.00 0.00 0.00 75 1017.0
20260505120042 30 80 0.0 2.0 0.00 0.00 0.00 75 1017.0
20260505114542 30 67 1.0 3.0 0.00 0.00 0.00 75 1017.1
20260505113041 30 29 1.0 4.0 0.00 0.00 0.00 77 1017.3
20260505111545 30 98 1.0 3.0 0.00 0.00 0.00 74 1017.1
20260505101538 32 74 2.0 5.0 0.00 0.00 0.00 69 1017.1
20260505100035 32 20 3.0 7.0 0.00 0.00 0.00 70 1017.3
20260505094536 33 9 2.0 5.0 0.00 0.00 0.00 68 1017.3
20260505093039 33 0 0.0 7.0 0.00 0.00 0.00 68 1017.1
20260505091559 33 43 3.0 5.0 0.00 0.00 0.00 66 1017.1
20260505090044 34 75 2.0 5.0 0.00 0.00 0.00 64 1017.3
20260505084546 35 340 2.0 5.0 0.00 0.00 0.00 62 1017.2
20260505083036 35 0 1.0 4.0 0.00 0.00 0.00 61 1016.9
20260505081539 36 45 5.0 8.0 0.00 0.00 0.00 59 1016.8
20260505080046 37 51 8.0 15.0 0.00 0.00 0.00 58 1016.6
20260505074542 38 44 8.0 13.0 0.00 0.00 0.00 57 1016.5
20260505073038 40 32 6.0 12.0 0.00 0.00 0.00 56 1016.4
20260505071550 40 79 0.0 4.0 0.00 0.00 0.00 58 1016.1
20260505070041 41 83 1.0 3.0 0.00 0.00 0.00 55 1015.9
20260505064542 42 0 1.0 4.0 0.00 0.00 0.00 55 1015.8
20260505063058 42 74 2.0 7.0 0.00 0.00 0.00 53 1015.7
20260505061606 41 82 8.0 13.0 0.00 0.00 0.00 55 1015.5
20260505060039 42 64 2.0 7.0 0.00 0.00 0.00 56 1015.6
20260505054548 43 86 3.0 5.0 0.00 0.00 0.00 52 1015.6
20260505053052 44 80 5.0 8.0 0.00 0.00 0.00 51 1015.6
20260505051606 45 352 4.0 10.0 0.00 0.00 0.00 49 1015.6
20260505041548 46 65 4.0 9.0 0.00 0.00 0.00 49 1015.2
20260505040045 47 96 4.0 10.0 0.00 0.00 0.00 49 1015.0
20260505034539 48 117 6.0 9.0 0.00 0.00 0.00 48 1014.9
20260505033044 48 99 5.0 10.0 0.00 0.00 0.00 52 1014.5
20260505031534 48 82 7.0 12.0 0.00 0.00 0.00 51 1014.3
20260505030034 49 68 7.0 11.0 0.00 0.00 0.00 51 1014.2
20260505024548 49 70 5.0 11.0 0.00 0.00 0.00 51 1014.0
20260505023041 49 47 7.0 11.0 0.00 0.00 0.00 50 1013.8
20260505021549 50 59 5.0 10.0 0.00 0.00 0.00 50 1013.9
20260505020043 50 65 5.0 10.0 0.00 0.00 0.00 49 1013.9
20260505014533 51 34 3.0 7.0 0.00 0.00 0.00 47 1013.8
20260505013040 51 0 0.0 4.0 0.00 0.00 0.00 43 1013.7
20260505011538 51 108 3.0 4.0 0.00 0.00 0.00 43 1013.6
20260505010038 51 156 2.0 5.0 0.00 0.00 0.00 43 1013.6
20260505004544 51 158 2.0 5.0 0.00 0.00 0.00 42 1013.5
20260505003043 51 139 3.0 6.0 0.00 0.00 0.00 42 1013.6
20260505001544 51 142 3.0 5.0 0.00 0.00 0.00 42 1013.5
20260505000046 51 128 3.0 5.0 0.00 0.00 0.00 41 1013.7
20260504234539 52 131 3.0 6.0 0.00 0.00 0.00 40 1013.6
20260504233100 52 137 0.0 6.0 0.00 0.00 0.00 41 1013.5
20260504231542 52 95 3.0 7.0 0.00 0.00 0.00 39 1013.5
20260504230046 52 70 1.0 6.0 0.00 0.00 0.00 39 1013.5
20260504224542 52 78 1.0 5.0 0.00 0.00 0.00 39 1013.5
20260504223038 52 77 3.0 8.0 0.00 0.00 0.00 40 1013.7
20260504221535 52 84 6.0 10.0 0.00 0.00 0.00 39 1013.6
20260504220045 52 75 3.0 6.0 0.00 0.00 0.00 41 1013.6
20260504214535 51 77 5.0 11.0 0.00 0.00 0.00 43 1013.8
20260504213041 51 42 6.0 15.0 0.00 0.00 0.00 43 1013.9
20260504211540 51 6 5.0 12.0 0.00 0.00 0.00 44 1014.0
20260504210104 51 4 9.0 13.0 0.00 0.00 0.00 43 1014.1
20260504204548 52 12 6.0 14.0 0.00 0.00 0.00 44 1014.2
20260504203058 51 42 6.0 12.0 0.00 0.00 0.00 45 1014.2
20260504201541 51 14 7.0 14.0 0.00 0.00 0.00 44 1014.4
20260504200041 50 64 7.0 14.0 0.00 0.00 0.00 45 1014.2
20260504194537 51 14 10.0 17.0 0.00 0.00 0.00 43 1014.3
20260504193035 51 40 7.0 12.0 0.00 0.00 0.00 49 1014.4
20260504191533 51 352 5.0 9.0 0.00 0.00 0.00 48 1014.4
20260504190047 50 29 3.0 9.0 0.00 0.00 0.00 48 1014.4
20260504184538 51 20 7.0 12.0 0.00 0.00 0.00 47 1014.3
20260504183037 51 29 9.0 15.0 0.00 0.00 0.00 45 1014.4
20260504181535 52 71 9.0 14.0 0.00 0.00 0.00 43 1014.4
20260504180036 53 82 8.0 14.0 0.00 0.00 0.00 41 1014.6
20260504174540 53 29 7.0 18.0 0.00 0.00 0.00 44 1014.6